W0RMT-13 Weather Reports


time (UTC)temp
C
wind
direction
speed
KPH
gust
KPH
rain 1hr
cm
rain 24hr
cm
rain mn
cm
humidity
%
barometer
mb
20260505041440 7 228 0.0 3.2 0.08 0.33 0.33 98 1011.5
20260505041103 7 214 0.0 3.2 0.08 0.33 0.33 98 1011.5
20260505041007 7 208 0.0 3.2 0.08 0.33 0.33 98 1011.5
20260505040201 8 191 0.0 0.0 0.13 0.33 0.33 98 1011.5
20260505035852 8 211 0.0 0.0 0.18 0.33 0.33 97 1011.5
20260505035515 8 201 0.0 0.0 0.20 0.33 0.33 98 1011.5
20260505034924 8 198 0.0 0.0 0.23 0.30 0.30 98 1011.5
20260505034731 8 193 0.0 0.0 0.23 0.30 0.30 97 1011.5
20260505034400 8 191 0.0 0.0 0.25 0.30 0.30 97 1011.5
20260505033849 8 202 0.0 0.0 0.25 0.30 0.30 97 1011.5
20260505033631 8 191 0.0 0.0 0.25 0.30 0.30 97 1011.5
20260505033312 8 198 0.0 0.0 0.30 0.30 0.30 97 1011.5
20260505033250 8 221 0.0 0.0 0.30 0.30 0.30 97 1011.5
20260505032601 8 283 0.0 0.0 0.30 0.30 0.30 96 1011.5
20260505032108 8 233 0.0 0.0 0.28 0.28 0.28 96 1011.5
20260505031513 8 192 0.0 3.2 0.25 0.25 0.25 95 1011.5
20260505030910 8 211 0.0 3.2 0.25 0.25 0.25 95 1011.5
20260505030806 9 273 0.0 3.2 0.20 0.20 0.20 94 1011.5
20260505030408 9 273 0.0 3.2 0.20 0.20 0.20 94 1011.5
20260505025902 9 203 0.0 3.2 0.13 0.13 0.13 91 1011.0
20260505025149 9 222 1.6 3.2 0.08 0.08 0.08 89 1011.0
20260505024951 9 324 3.2 3.2 0.08 0.08 0.08 89 1010.7
20260505024316 10 206 0.0 0.0 0.05 0.05 0.05 86 1010.7
20260505023957 10 230 0.0 0.0 0.05 0.05 0.05 84 1011.0
20260505023630 10 240 0.0 0.0 0.00 0.00 0.00 83 1010.7
20260505022947 10 278 0.0 0.0 0.00 0.00 0.00 81 1010.2
20260505022438 10 211 0.0 0.0 0.00 0.00 0.00 80 1010.7
20260505021925 10 198 0.0 0.0 0.00 0.00 0.00 80 1010.2
20260505021400 10 219 0.0 3.2 0.00 0.00 0.00 77 1010.2
20260505020904 10 244 0.0 3.2 0.00 0.00 0.00 76 1010.2
20260505020716 10 270 1.6 3.2 0.00 0.00 0.00 76 1010.2
20260505020234 10 211 0.0 3.2 0.00 0.00 0.00 77 1010.7
20260505015816 10 289 0.0 3.2 0.00 0.00 0.00 76 1010.2
20260505015444 10 214 0.0 3.2 0.00 0.00 0.00 75 1010.7
20260505014838 11 229 0.0 3.2 0.00 0.00 0.00 73 1010.7
20260505014701 11 271 1.6 3.2 0.00 0.00 0.00 73 1010.7
20260505014247 11 227 0.0 3.2 0.00 0.00 0.00 73 1010.2
20260505013747 11 317 0.0 8.0 0.00 0.00 0.00 71 1010.2
20260505013452 12 217 3.2 8.0 0.00 0.00 0.00 70 1010.2
20260505013115 12 301 4.8 8.0 0.00 0.00 0.00 71 1010.2
20260505012551 12 267 0.0 8.0 0.00 0.00 0.00 70 1010.2
20260505012348 13 225 0.0 8.0 0.00 0.00 0.00 68 1010.2
20260505012259 13 280 3.2 8.0 0.00 0.00 0.00 66 1010.2
20260505011409 13 248 4.8 8.0 0.00 0.00 0.00 61 1009.8
20260505011231 13 248 4.8 8.0 0.00 0.00 0.00 61 1010.2
20260505011053 13 73 1.6 3.2 0.00 0.00 0.00 59 1010.2
20260505010150 13 182 0.0 0.0 0.00 0.00 0.00 57 1009.8
20260505005516 13 218 0.0 0.0 0.00 0.00 0.00 56 1009.5
20260505005023 14 217 0.0 3.2 0.00 0.00 0.00 56 1009.5
20260505004847 14 213 0.0 3.2 0.00 0.00 0.00 57 1009.5
20260505004325 14 262 0.0 3.2 0.00 0.00 0.00 56 1009.5
20260505003904 14 251 0.0 3.2 0.00 0.00 0.00 55 1009.8
20260505003716 14 163 0.0 3.2 0.00 0.00 0.00 55 1009.5
20260505003152 14 203 0.0 3.2 0.00 0.00 0.00 54 1009.5
20260505002802 15 218 0.0 3.2 0.00 0.00 0.00 54 1009.8
20260505002456 15 229 0.0 3.2 0.00 0.00 0.00 54 1009.5
20260505001943 15 239 1.6 3.2 0.00 0.00 0.00 55 1009.5
20260505001632 15 299 3.2 3.2 0.00 0.00 0.00 54 1009.5
20260505001528 15 174 0.0 3.2 0.00 0.00 0.00 53 1009.5
20260505000657 15 298 0.0 3.2 0.00 0.00 0.00 52 1009.5
20260505000531 15 350 1.6 3.2 0.00 0.00 0.00 51 1009.5
20260505000049 15 275 1.6 3.2 0.00 0.00 0.00 51 1009.5
20260504235540 15 189 0.0 3.2 0.00 0.00 0.00 53 1009.5
20260504235404 15 224 0.0 3.2 0.00 0.00 0.00 53 1009.0
20260504234930 15 235 0.0 8.0 0.00 0.00 0.00 52 1009.5
20260504234702 15 331 3.2 8.0 0.00 0.00 0.00 51 1009.5
20260504234249 15 304 4.8 8.0 0.00 0.00 0.00 51 1009.5
20260504234101 15 209 0.0 3.2 0.00 0.00 0.00 49 1009.5
20260504233307 15 220 0.0 3.2 0.00 0.00 0.00 47 1009.0
20260504233131 15 226 0.0 3.2 0.00 0.00 0.00 47 1009.0
20260504232704 15 227 0.0 0.0 0.00 0.00 0.00 47 1009.0
20260504232114 15 256 0.0 3.2 0.00 0.00 0.00 48 1009.0
20260504231549 15 296 1.6 3.2 0.00 0.00 0.00 48 1009.0
20260504231025 15 156 0.0 3.2 0.00 0.00 0.00 49 1009.5
20260504230345 15 158 0.0 8.0 0.00 0.00 0.00 49 1009.0
20260504230012 15 337 3.2 8.0 0.00 0.00 0.00 51 1009.5
20260504225815 15 229 0.0 8.0 0.00 0.00 0.00 52 1009.0
20260504225306 16 212 0.0 8.0 0.00 0.00 0.00 51 1009.5
20260504224943 16 72 3.2 8.0 0.00 0.00 0.00 50 1009.5
20260504224744 16 267 3.2 16.1 0.00 0.00 0.00 50 1009.5
20260504224123 16 178 8.0 16.1 0.00 0.00 0.00 46 1009.8
20260504223801 16 255 0.0 3.2 0.00 0.00 0.00 45 1009.5
20260504223437 16 306 1.6 3.2 0.00 0.00 0.00 45 1009.5
20260504222900 16 213 1.6 3.2 0.00 0.00 0.00 43 1009.5
20260504222631 16 207 0.0 0.0 0.00 0.00 0.00 42 1009.5
20260504222309 16 214 0.0 0.0 0.00 0.00 0.00 43 1009.5
20260504221637 16 329 0.0 0.0 0.00 0.00 0.00 43 1009.0
20260504221505 16 222 0.0 3.2 0.00 0.00 0.00 43 1009.0
20260504221030 16 331 0.0 12.9 0.00 0.00 0.00 44 1009.0
20260504220946 16 309 4.8 12.9 0.00 0.00 0.00 43 1008.2
20260504220548 16 309 4.8 12.9 0.00 0.00 0.00 43 1008.2
20260504220303 17 186 1.6 8.0 0.00 0.00 0.00 42 1007.8
20260504215301 17 166 0.0 12.9 0.00 0.00 0.00 43 1007.8
20260504214730 17 195 1.6 12.9 0.00 0.00 0.00 42 1008.2
20260504214213 18 346 4.8 12.9 0.00 0.00 0.00 42 1008.2
20260504214051 18 122 8.0 16.1 0.00 0.00 0.00 41 1008.2
20260504213501 18 21 8.0 16.1 0.00 0.00 0.00 39 1007.8
20260504213125 18 283 9.7 12.9 0.00 0.00 0.00 39 1007.8
20260504212931 18 285 6.4 12.9 0.00 0.00 0.00 38 1008.2
20260504212252 18 277 8.0 16.1 0.00 0.00 0.00 36 1007.8
20260504212051 18 81 12.9 24.1 0.00 0.00 0.00 35 1008.2
20260504211646 18 306 9.7 24.1 0.00 0.00 0.00 35 1008.2
20260504211110 19 163 3.2 20.9 0.00 0.00 0.00 39 1008.2
20260504210922 19 68 14.5 20.9 0.00 0.00 0.00 37 1008.2
20260504210546 20 190 3.2 8.0 0.00 0.00 0.00 36 1008.2
20260504205901 20 11 3.2 16.1 0.00 0.00 0.00 33 1008.2
20260504205309 21 104 1.6 8.0 0.00 0.00 0.00 32 1007.8
20260504204707 21 124 6.4 20.9 0.00 0.00 0.00 30 1007.8
20260504204030 21 175 1.6 20.9 0.00 0.00 0.00 30 1007.8
20260504203658 20 270 4.8 20.9 0.00 0.00 0.00 30 1007.8
20260504203526 20 93 16.1 20.9 0.00 0.00 0.00 29 1007.8
20260504202851 20 154 3.2 12.9 0.00 0.00 0.00 31 1007.8
20260504202650 19 188 3.2 12.9 0.00 0.00 0.00 31 1007.8
20260504202230 19 256 8.0 12.9 0.00 0.00 0.00 30 1007.8
20260504201730 18 302 3.2 8.0 0.00 0.00 0.00 32 1007.8
20260504201532 18 192 0.0 8.0 0.00 0.00 0.00 33 1007.8
20260504201038 19 202 4.8 8.0 0.00 0.00 0.00 36 1007.8
20260504200516 20 178 3.2 3.2 0.00 0.00 0.00 35 1008.2
20260504200003 20 166 0.0 3.2 0.00 0.00 0.00 34 1008.2
20260504195444 21 214 0.0 8.0 0.00 0.00 0.00 34 1008.2
20260504194743 22 258 3.2 12.9 0.00 0.00 0.00 30 1008.2
20260504194432 23 210 1.6 12.9 0.00 0.00 0.00 29 1008.2
20260504194125 23 218 1.6 12.9 0.00 0.00 0.00 26 1008.2
20260504193612 23 195 9.7 12.9 0.00 0.00 0.00 24 1008.2
20260504193250 23 194 0.0 8.0 0.00 0.00 0.00 23 1007.8
20260504192955 24 302 3.2 8.0 0.00 0.00 0.00 22 1007.5
20260504192330 23 243 0.0 8.0 0.00 0.00 0.00 22 1007.8
20260504192153 23 268 3.2 12.9 0.00 0.00 0.00 21 1007.0
20260504192149 23 195 1.6 8.0 0.00 0.00 0.00 22 1007.5
20260504191144 23 334 4.8 12.9 0.00 0.00 0.00 23 1007.5
20260504191007 23 340 4.8 12.9 0.00 0.00 0.00 22 1007.5
20260504190530 23 327 3.2 8.0 0.00 0.00 0.00 22 1007.0
20260504185852 23 325 4.8 8.0 0.00 0.00 0.00 24 1007.5
20260504185506 23 239 3.2 8.0 0.00 0.00 0.00 23 1007.5
20260504184729 23 169 4.8 8.0 0.00 0.00 0.00 23 1007.5
20260504184051 23 291 3.2 8.0 0.00 0.00 0.00 24 1007.5
20260504183716 24 260 3.2 8.0 0.00 0.00 0.00 24 1007.5
20260504183407 24 160 0.0 12.9 0.00 0.00 0.00 23 1007.8
20260504182748 24 153 9.7 12.9 0.00 0.00 0.00 24 1007.5
20260504182601 24 226 3.2 8.0 0.00 0.00 0.00 24 1007.8
20260504182239 24 267 3.2 8.0 0.00 0.00 0.00 24 1007.8
20260504181700 23 196 1.6 12.9 0.00 0.00 0.00 24 1007.8
20260504181513 23 287 3.2 12.9 0.00 0.00 0.00 23 1007.8
20260504181401 23 198 4.8 12.9 0.00 0.00 0.00 24 1007.8
20260504180440 22 101 0.0 12.9 0.00 0.00 0.00 25 1008.2
20260504175831 22 53 4.8 12.9 0.00 0.00 0.00 25 1008.2
20260504175331 22 301 8.0 8.0 0.00 0.00 0.00 26 1008.2
20260504175148 22 19 3.2 8.0 0.00 0.00 0.00 26 1007.8
20260504174503 22 170 0.0 3.2 0.00 0.00 0.00 27 1008.2
20260504174238 21 191 0.0 12.9 0.00 0.00 0.00 27 1008.2
20260504174144 21 20 1.6 12.9 0.00 0.00 0.00 27 1008.7
20260504173332 21 351 3.2 8.0 0.00 0.00 0.00 27 1008.7
20260504173152 21 178 8.0 8.0 0.00 0.00 0.00 28 1008.7
20260504172703 21 298 3.2 8.0 0.00 0.00 0.00 28 1008.7
20260504172141 21 180 1.6 8.0 0.00 0.00 0.00 27 1008.7
20260504171615 21 291 0.0 8.0 0.00 0.00 0.00 29 1008.7
20260504171042 21 280 3.2 8.0 0.00 0.00 0.00 28 1008.7
20260504170443 20 217 3.2 8.0 0.00 0.00 0.00 28 1008.7
20260504160349 17 226 0.0 3.2 0.00 0.00 0.00 34 1009.5
20260504160150 16 105 0.0 3.2 0.00 0.00 0.00 34 1009.5
20260504151016 15 202 0.0 3.2 0.00 0.00 0.00 35 1009.5
20260504150515 15 201 0.0 0.0 0.00 0.00 0.00 36 1009.5
20260504140930 13 190 0.0 0.0 0.00 0.00 0.00 37 1009.5
20260504140551 13 194 0.0 0.0 0.00 0.00 0.00 37 1009.5
20260504140354 13 301 0.0 0.0 0.00 0.00 0.00 36 1009.5
20260504130525 8 207 0.0 0.0 0.00 0.00 0.00 42 1009.0
20260504110430 6 213 0.0 0.0 0.00 0.00 0.00 53 1009.5
20260504100531 6 208 0.0 0.0 0.00 0.00 0.00 53 1009.8
20260504081549 7 198 0.0 0.0 0.00 0.00 0.00 53 1010.2
20260504081401 7 198 0.0 0.0 0.00 0.00 0.00 53 1010.2
20260504080903 7 198 0.0 0.0 0.00 0.00 0.00 53 1010.2
20260504080231 8 198 0.0 0.0 0.00 0.00 0.00 52 1010.7
20260504070348 10 192 0.0 0.0 0.00 0.00 0.00 46 1011.0
20260504050431 15 199 3.2 3.2 0.00 0.00 0.00 33 1011.0
20260504045734 15 206 0.0 3.2 0.00 0.00 0.00 32 1011.0